Location: Unspecified
(43.4354°N, 0.0000°E)
Time: 21:39:54
(UTC+00:00)

S-56A Canister/Altair - All Passes

Search period start: 25 June 2019 00:00
Search period end: 05 July 2019 00:00
Orbit: 633 x 2499 km, 38.9° (Epoch: 25 June)

Date Brightness Start Highest point End Pass type
(mag) Time Alt. Az. Time Alt. Az. Time Alt. Az.
25 Jun - 11:56:01 10° S 12:02:33 16° SE 12:08:10 10° ESE daylight
25 Jun - 13:56:24 10° SW 14:07:05 38° SSE 14:14:37 10° E daylight
25 Jun - 16:01:35 10° WSW 16:11:34 59° S 16:18:07 10° E daylight
25 Jun - 18:07:49 10° W 18:15:34 55° SSW 18:20:52 10° ESE daylight
25 Jun - 20:14:01 10° W 20:18:30 22° SW 20:22:11 10° SSE visible
26 Jun - 11:23:43 10° SSE 11:29:31 14° SE 11:34:39 10° ESE daylight
26 Jun - 13:23:03 10° SSW 13:34:04 36° SSE 13:42:01 10° E daylight
26 Jun - 15:28:01 10° WSW 15:38:43 59° S 15:45:43 10° E daylight
26 Jun - 17:34:24 10° W 17:42:54 59° S 17:48:35 10° ESE daylight
26 Jun - 19:40:41 10° W 19:46:03 26° SSW 19:50:13 10° SSE daylight
27 Jun - 10:51:51 10° SSE 10:56:28 12° SE 11:00:43 10° ESE daylight
27 Jun - 12:49:45 10° SSW 13:01:00 34° SSE 13:09:20 10° E daylight
27 Jun - 14:54:25 10° WSW 15:05:47 58° SSE 15:13:17 10° E daylight
27 Jun - 17:00:54 10° W 17:10:12 62° S 17:16:17 10° ESE daylight
27 Jun - 19:07:19 10° W 19:13:34 31° SSW 19:18:12 10° SSE daylight
28 Jun - 10:20:58 10° SE 10:23:24 11° SE 10:25:45 10° ESE daylight
28 Jun - 12:16:31 10° SSW 12:27:53 32° SSE 12:36:35 10° E daylight
28 Jun - 14:20:48 10° WSW 14:32:47 57° SSE 14:40:49 10° E daylight
28 Jun - 16:27:19 10° W 16:37:24 65° S 16:43:57 10° ESE daylight
28 Jun - 18:33:55 10° W 18:41:02 37° SSW 18:46:06 10° SE daylight
29 Jun - 11:43:22 10° SSW 11:54:44 30° SSE 12:03:43 10° E daylight
29 Jun - 13:47:12 10° SW 13:59:43 55° SSE 14:08:16 10° E daylight
29 Jun - 15:53:41 10° W 16:04:32 66° S 16:11:35 10° ESE daylight
29 Jun - 18:00:26 10° W 18:08:27 43° SSW 18:13:58 10° SE daylight
29 Jun - 20:08:56 10° WSW 20:10:48 11° SW 20:12:30 10° SSW daylight
30 Jun - 11:10:19 10° SSW 11:21:34 28° SE 11:30:45 10° E daylight
30 Jun - 13:13:37 10° SW 13:26:35 53° SSE 13:35:42 10° E daylight
30 Jun - 15:20:00 10° WSW 15:31:36 68° S 15:39:10 10° E daylight
30 Jun - 17:26:54 10° W 17:35:48 48° SSW 17:41:46 10° SE daylight
30 Jun - 19:34:35 10° WSW 19:38:22 15° SW 19:41:34 10° S daylight
01 Jul - 10:37:24 10° S 10:48:22 26° SE 10:57:38 10° E daylight
01 Jul - 12:40:05 10° SW 12:53:24 51° SSE 13:03:02 10° E daylight
01 Jul - 14:46:16 10° WSW 14:58:35 68° S 15:06:43 10° E daylight
01 Jul - 16:53:17 10° W 17:03:04 54° SSW 17:09:31 10° SE daylight
01 Jul - 19:00:42 10° W 19:05:55 20° SW 19:10:03 10° S daylight
02 Jul - 10:04:39 10° S 10:15:10 24° SE 10:24:22 10° E daylight
02 Jul - 12:06:35 10° SW 12:20:09 49° SSE 12:30:18 10° E daylight
02 Jul - 14:12:31 10° WSW 14:25:30 68° S 14:34:13 10° E daylight
02 Jul - 16:19:37 10° W 16:30:15 58° SSW 16:37:14 10° ESE daylight
02 Jul - 18:26:56 10° W 18:33:25 24° SW 18:38:18 10° SSE daylight
03 Jul - 09:32:03 10° S 09:41:57 21° SE 09:50:55 10° E daylight
03 Jul - 11:33:11 10° SW 11:46:51 47° SSE 11:57:30 10° E daylight
03 Jul - 13:38:47 10° WSW 13:52:20 68° S 14:01:39 10° E daylight
03 Jul - 15:45:54 10° W 15:57:23 62° SSW 16:04:52 10° ESE daylight
03 Jul - 17:53:13 10° W 18:00:52 29° SW 18:06:23 10° SSE daylight
04 Jul - 08:59:43 10° S 09:08:46 19° SE 09:17:13 10° E daylight
04 Jul - 10:59:52 10° SW 11:13:31 44° SSE 11:24:36 10° E daylight
04 Jul - 13:05:04 10° WSW 13:19:06 67° S 13:29:01 10° E daylight
04 Jul - 15:12:08 10° W 15:24:23 66° SSW 15:32:28 10° ESE daylight
04 Jul - 17:19:28 10° W 17:28:15 35° SW 17:34:23 10° SSE daylight
